Regional Weather Roundup
Issued by NWS

Home | Current Version | Previous Version | Graphics & Text | Print | Product List | Glossary On
Versions: 1 2 3 4 5 6 7 8 9 10 11 12 13 14 15 16 17 18 19 20 21 22 23 24 25 26 27 28 29 30 31 32 33 34 35 36 37 38 39 40 41 42 43 44 45 46 47 48 49 50
000
ASUS43 KOAX 291710
RWRNE

WEATHER ROUNDUP FOR NEBRASKA
NATIONAL WEATHER SERVICE OMAHA NE
1200 PM CDT SUN MAY 29 2016

NOTES: SATELLITE DATA IS BEING USED TO AUGMENT CLOUD COVER ABOVE
       12000 FEET.
       "FAIR" INDICATES FEW OR NO CLOUDS BELOW 12,000 FEET WITH NO
       SIGNIFICANT WEATHER AND/OR OBSTRUCTIONS TO VISIBILITY.

  * THESE STATIONS DO NOT REPORT WEATHER SUCH AS RAIN...SNOW OR FOG.

NEZ001>004-019>022-054>056-291800-
NEBRASKA PANHANDLE

CITY           SKY/WX    TMP DP  RH WIND       PRES   REMARKS
SCOTTSBLUFF    SUNNY     69  50  50 S5        30.12F
ALLIANCE       SUNNY     69  49  48 S9        30.11F
CHADRON        SUNNY     71  51  49 S5        30.08F
KIMBALL        SUNNY     71  39  30 SW7       30.16S
SIDNEY         SUNNY     74  46  36 SW8       30.14F
$$

NEZ057>060-069>072-079>082-291800-
SOUTHWEST NEBRASKA

CITY           SKY/WX    TMP DP  RH WIND       PRES   REMARKS
NORTH PLATTE   SUNNY     73  56  54 S8        30.12F
IMPERIAL       SUNNY     73  56  54 MISG      30.11F
LEXINGTON      SUNNY     73  58  59 CALM      30.11F
MCCOOK         SUNNY     76  58  53 MISG      30.10F
OGALLALA       SUNNY     73  51  45 SW6       30.11F
$$

NEZ005>010-023>029-035>040-094-291800-
NORTH CENTRAL NEBRASKA

CITY           SKY/WX    TMP DP  RH WIND       PRES   REMARKS
VALENTINE      SUNNY     71  49  45 VRB3      30.11F
AINSWORTH      MOSUNNY   70  53  55 SE3       30.11F
BROKEN BOW     SUNNY     73  53  49 CALM      30.11F
O`NEILL        SUNNY     73  54  50 CALM      30.11S
ORD            MOSUNNY   74  57  55 CALM      30.09F
THEDFORD       MOSUNNY   74  53  47 S10       30.13S
$$

NEZ041-046>049-061>064-073>077-083>087-291800-
SOUTH CENTRAL NEBRASKA

CITY           SKY/WX    TMP DP  RH WIND       PRES   REMARKS
GRAND ISLAND   SUNNY     77  53  43 SW6       30.11S
AURORA         SUNNY     76  53  44 SW5       30.10F
HASTINGS       SUNNY     77  57  50 VRB5      30.10F
HEBRON         SUNNY     78  59  52 SW6       30.11F
HOLDREGE       SUNNY     76  54  47 SW7       30.10F
KEARNEY *      SUNNY     77  52  41 W5        30.11F
YORK           SUNNY     77  55  47 SW9       30.10F
$$

NEZ011>018-030>034-042>045-291800-
NORTHEAST NEBRASKA

CITY           SKY/WX    TMP DP  RH WIND       PRES   REMARKS
NORFOLK        SUNNY     74  56  53 SW6       30.09S
ALBION         SUNNY     75  56  53 W5        30.10S
BLAIR          SUNNY     75  56  51 W3        30.10S
FREMONT        SUNNY     75  58  54 CALM      30.10S
TEKAMAH          N/A    N/A N/A N/A MISG      30.08S
WAYNE          SUNNY     75  59  58 W12       30.10R
$$

NEZ050>053-065>068-078-088>093-291800-
SOUTHEAST NEBRASKA

CITY           SKY/WX    TMP DP  RH WIND       PRES   REMARKS
LINCOLN        SUNNY     80  58  46 SW7       30.10S
OMAHA EPPLEY   MOSUNNY   76  58  53 S5        30.09S
BEATRICE       PTSUNNY   78  59  51 W7        30.10S
FALLS CITY     PTSUNNY   80  62  54 SW10      30.10S
NEBRASKA CITY  SUNNY     77  60  56 SW7       30.11S
PLATTSMOUTH    SUNNY     78  62  57 SE5       30.10S
$$

NEZ044-045-051>053-067-291800-
OMAHA AREA

CITY           SKY/WX    TMP DP  RH WIND       PRES   REMARKS
OMAHA EPPLEY   MOSUNNY   76  58  53 S5        30.09S
BLAIR          SUNNY     75  56  51 W3        30.10S
FREMONT        SUNNY     75  58  54 CALM      30.10S
MILLARD        SUNNY     76  58  54 S3        30.09S
OFFUTT AFB     MOSUNNY   75  60  60 VRB2      30.09S
PLATTSMOUTH    SUNNY     78  62  57 SE5       30.10S
WAHOO          FAIR      76  58  54 SE5       30.10R
$$



USA.gov is the U.S. government's official web portal to all federal, state and local government web resources and services.